Location: Powder Track
(41.8531°N, 72.3584°W)
Time: 22:26:34
(UTC+00:00)

Altair - All Passes

Search period start: 28 July 2021 00:00
Search period end: 07 August 2021 00:00
Orbit: 1501 x 1682 km, 47.2° (Epoch: 28 July)

Date Brightness Start Highest point End Pass type
(mag) Time Alt. Az. Time Alt. Az. Time Alt. Az.
28 Jul - 05:27:39 10° S 05:34:58 26° SE 05:42:07 10° ENE visible
28 Jul - 07:29:14 10° SW 07:38:35 75° SSE 07:47:45 10° ENE visible
28 Jul - 09:34:22 10° W 09:43:35 66° N 09:52:44 10° ENE daylight
28 Jul - 11:39:55 10° WNW 11:49:06 72° NNE 11:58:21 10° E daylight
28 Jul - 13:44:49 10° WNW 13:53:44 59° SW 14:02:50 10° SE daylight
28 Jul - 15:51:39 10° W 15:56:58 17° SW 16:02:22 10° SSW daylight
29 Jul - 05:02:58 10° S 05:09:55 23° SE 05:16:43 10° E visible
29 Jul - 07:04:06 10° SW 07:13:27 71° SSE 07:22:35 10° ENE visible
29 Jul - 09:09:06 10° W 09:18:22 67° N 09:27:31 10° ENE visible
29 Jul - 11:14:42 10° WNW 11:23:54 70° NNE 11:33:07 10° E daylight
29 Jul - 13:19:38 10° WNW 13:28:37 63° SW 13:37:45 10° SE daylight
29 Jul - 15:26:04 10° W 15:31:56 19° SW 15:37:55 10° SSW daylight
30 Jul - 04:38:19 10° S 04:44:52 21° SE 04:51:17 10° E visible
30 Jul - 06:38:59 10° SW 06:48:19 67° SE 06:57:24 10° ENE visible
30 Jul - 08:43:51 10° W 08:53:08 68° NNW 09:02:18 10° ENE visible
30 Jul - 10:49:29 10° WNW 10:58:42 68° NNE 11:07:52 10° E daylight
30 Jul - 12:54:26 10° WNW 13:03:30 67° SW 13:12:40 10° SE daylight
30 Jul - 15:00:34 10° W 15:06:54 21° SW 15:13:22 10° S daylight
31 Jul - 04:13:45 10° SSE 04:19:50 19° SE 04:25:47 10° E visible
31 Jul - 06:13:53 10° SW 06:23:11 62° SE 06:32:14 10° ENE visible
31 Jul - 08:18:35 10° W 08:27:55 70° NNW 08:37:06 10° ENE visible
31 Jul - 10:24:16 10° WNW 10:33:28 67° N 10:42:37 10° E daylight
31 Jul - 12:29:15 10° WNW 12:38:22 71° SSW 12:47:34 10° SE daylight
31 Jul - 14:35:07 10° W 14:41:52 23° SW 14:48:43 10° S daylight
01 Aug - 03:49:18 10° SSE 03:54:47 17° SE 04:00:11 10° E visible
01 Aug - 05:48:48 10° SW 05:58:04 58° SE 06:07:03 10° ENE visible
01 Aug - 07:53:19 10° W 08:02:43 72° NNW 08:11:54 10° ENE visible
01 Aug - 09:59:02 10° WNW 10:08:14 65° N 10:17:22 10° E daylight
01 Aug - 12:04:04 10° WNW 12:13:14 76° SSW 12:22:27 10° SE daylight
01 Aug - 14:09:44 10° WNW 14:16:50 26° SW 14:24:02 10° S daylight
02 Aug - 03:24:58 10° SSE 03:29:46 15° SE 03:34:29 10° E visible
02 Aug - 05:23:44 10° SW 05:32:56 54° SE 05:41:51 10° ENE visible
02 Aug - 07:28:04 10° WSW 07:37:30 75° NNW 07:46:43 10° ENE visible
02 Aug - 09:33:48 10° WNW 09:43:01 64° N 09:52:08 10° E daylight
02 Aug - 11:38:54 10° WNW 11:48:06 80° SSW 11:57:19 10° SE daylight
02 Aug - 13:44:23 10° WNW 13:51:47 28° SW 13:59:18 10° S daylight
03 Aug - 03:00:51 10° SSE 03:04:44 13° ESE 03:08:35 10° E visible
03 Aug - 04:58:42 10° SSW 05:07:50 51° SE 05:16:39 10° ENE visible
03 Aug - 07:02:49 10° WSW 07:12:18 77° NNW 07:21:32 10° ENE visible
03 Aug - 09:08:33 10° WNW 09:17:47 64° N 09:26:53 10° E visible
03 Aug - 11:13:43 10° WNW 11:22:56 84° SSW 11:32:10 10° ESE daylight
03 Aug - 13:19:03 10° WNW 13:26:44 31° SW 13:34:30 10° S daylight
04 Aug - 02:37:09 10° SE 02:39:43 11° ESE 02:42:16 10° ESE visible
04 Aug - 04:33:41 10° SSW 04:42:43 47° SE 04:51:27 10° ENE visible
04 Aug - 06:37:34 10° WSW 06:47:05 80° NNW 06:56:21 10° ENE visible
04 Aug - 08:43:17 10° WNW 08:52:32 63° N 09:01:39 10° E visible
04 Aug - 10:48:31 10° WNW 10:57:47 88° SSW 11:07:00 10° ESE daylight
04 Aug - 12:53:45 10° WNW 13:01:41 34° SW 13:09:40 10° SSE daylight
05 Aug - 04:08:42 10° SSW 04:17:37 44° SE 04:26:14 10° ENE visible
05 Aug - 06:12:19 10° WSW 06:21:53 83° NNW 06:31:10 10° ENE visible
05 Aug - 08:18:02 10° W 08:27:19 63° N 08:36:25 10° E visible
05 Aug - 10:23:20 10° WNW 10:32:36 89° NNE 10:41:50 10° ESE daylight
05 Aug - 12:28:29 10° WNW 12:36:37 37° SW 12:44:48 10° SSE daylight
06 Aug - 03:43:45 10° SSW 03:52:31 40° SE 04:01:00 10° ENE visible
06 Aug - 05:47:05 10° WSW 05:56:42 86° NNW 06:06:01 10° ENE visible
06 Aug - 07:52:46 10° W 08:02:04 63° N 08:11:11 10° E visible
06 Aug - 09:58:08 10° WNW 10:07:26 85° NNE 10:16:39 10° ESE daylight
06 Aug - 12:03:14 10° WNW 12:11:33 40° SW 12:19:54 10° SSE daylight
